Tracking 28125 objects as of 2-Oct-2023
HD Live streaming from Space Station
objects crossing your sky now

STARLINK-5693

Track STARLINK-5693 now!
10-day predictions
STARLINK-5693 is classified as:


NORAD ID: 55482
Int'l Code: 2023-015AK
Perigee: 565.3 km
Apogee: 567.1 km
Inclination: 43.0 °
Period: 95.8 minutes
Semi major axis: 6937 km
RCS: Unknown
Launch date: February 2, 2023
Source: United States (US)
Launch site: AIR FORCE EASTERN TEST RANGE (AFETR)
Your satellite tracking list
Your tracking list is empty




NASA's NSSDC Master Catalog

Two Line Element Set (TLE):
1 55482U 23015AK  23274.80485113  .00009745  00000-0  73523-3 0  9991
2 55482  43.0007 134.2438 0001279 267.8233  92.2462 15.02548018 36744
Source of the keplerian elements: AFSPC